Location: Rumah Geringgi
(3.1667°N, 113.1667°E)
Time: 21:03:43
(UTC+00:00)

Cosmos 2218 Rocket - Pass Details

Date: 03 August 2024
Orbit: 956 x 1005 km, 82.9° (Epoch: 19 September)

Event Time Altitude Azimuth Distance (km) Brightness Sun altitude
Rises 12:06:19 0° 188° (S) 3,629 6.9 -21.0°
Reaches altitude 10° 12:08:49 10° 190° (S) 2,683 6.2 -21.6°
Maximum altitude 12:14:55 70° 273° (W) 1,014 4.2 -23.1°
Drops below altitude 10° 12:21:02 10° 356° (N) 2,693 6.6 -24.5°
Sets 12:23:33 0° 359° (N) 3,644 7.3 -25.1°
